Regional Weather Roundup
Issued by NWS Charleston, SC

Current Version | Previous Version | Graphics & Text | Print | Product List | Glossary On
Versions: 1 2 3 4 5 6 7 8 9 10 11 12 13 14 15 16 17 18 19 20 21 22 23 24 25 26 27 28 29 30 31 32 33 34 35 36 37 38 39 40 41 42 43 44 45 46 47 48 49 50
335 ASUS42 KCHS 221712 RWRCHS REGIONAL WEATHER ROUNDUP NATIONAL WEATHER SERVICE CHARLESTON SC 100 PM EDT SAT JUL 22 2017 NOTE: "FAIR" INDICATES FEW OR NO CLOUDS BELOW 12,000 FEET WITH NO SIGNIFICANT WEATHER AND/OR OBSTRUCTIONS TO VISIBILITY. NOT ALL STATIONS ARE QUALITY CONTROLLED. USE DATA WITH CAUTION... ESPECIALLY DEWPOINT OBSERVATIONS. SCZ027-030-031-034>040-042>050-221800- ...SOUTHEAST SOUTH CAROLINA... CITY SKY/WX TMP DP RH WIND PRES REMARKS N CHARLESTON MOSUNNY 90 73 57 W7 30.02F HX 98 WATERFRONT PRK N/A 88 75 65 VRB2 30.03S HX 97 JOHNS ISLAND FAIR 90 77 66 S12 30.03F HX 102 PINOPOLIS N/A 88 75 66 VRB2 29.96F HX 97 MONCKS CORNER FAIR 90 70 51 S6 30.02F HX 95 SUMMERVILLE FAIR 90 73 58 CALM 30.03F HX 98 BEAUFORT MCAS SUNNY 91 74 57 VRB7 30.04F HX 100 BEAUFORT ARPT NOT AVBL HILTON HEAD IS NOT AVBL WALTERBORO SUNNY 90 72 55 SW7 30.04F HX 96 ALLENDALE NOT AVBL ...SOUTHERN MIDLANDS AND PEE DEE... CITY SKY/WX TMP DP RH WIND PRES REMARKS GEORGETOWN FAIR 90 73 58 S7 30.03F HX 98 KINGSTREE FAIR 90 73 58 SW7 30.01F HX 98 ORANGEBURG SUNNY 89 72 56 S9 30.02F HX 96 BARNWELL FAIR 91 77 62 SW8 30.03F HX 105 AIKEN FAIR 88 73 62 S10 30.06F HX 96 MANNING FAIR 88 77 70 N12G23 30.02F HX 100 COLUMBIA MOSUNNY 92 71 50 S8 30.00F HX 98 SUMTER MOSUNNY 91 73 55 S12 29.99F HX 99 FLORENCE SUNNY 90 76 63 SW10G17 30.01F HX 101 MYRTLE BEACH MOSUNNY 90 75 62 S14 30.03F HX 100 N MYRTLE BEACH SUNNY 86 76 71 S12 30.02F HX 96 $$ GAZ063-065-086>088-099>101-113>116-118-119-134>141-150-221800- ...SOUTHEAST GEORGIA... CITY SKY/WX TMP DP RH WIND PRES REMARKS SAVANNAH ARPT MOSUNNY 90 72 54 VRB6 30.04F HX 97 HUNTER AAF SUNNY 90 72 56 S7 30.02F HX 97 FORT STEWART SUNNY 89 70 53 W6 30.02F HX 94 STATESBORO SUNNY 90 73 57 CALM 30.04F HX 97 SYLVANIA SUNNY 89 75 63 SW7 30.05F HX 98 CLAXTON FAIR 89 75 63 W7 30.04F HX 99 ...CSRA...CENTRAL AND FAR SOUTHEAST GEORGIA... CITY SKY/WX TMP DP RH WIND PRES REMARKS THOMSON SUNNY 89 75 62 W6 30.07F HX 99 AUGUSTA-BUSH SUNNY 92 75 57 S9 30.01F HX 103 AUGUSTA-DANIEL SUNNY 92 71 50 SW8 30.03F HX 98 SWAINSBORO FAIR 88 73 62 W7 30.04F HX 96 VIDALIA MOSUNNY 90 77 66 W7 30.05F HX 102 EASTMAN PTSUNNY 90 65 43 SW7 30.07F HX 91 HAZLEHURST FAIR 89 78 69 SW5 30.04F HX 103 ALMA SUNNY 90 73 57 VRB3 30.05F HX 98 WAYCROSS MOSUNNY 92 77 62 CALM 30.05F HX 106 JESUP NOT AVBL BAXLEY FAIR 88 79 74 SW3 30.05F HX 102 BRUNSWICK MOSUNNY 90 75 62 CALM 30.06F HX 100 SAINT SIMONS SUNNY 90 73 57 SW7 30.05F HX 98 $$ SCZ027-028-034-036>038-045-046-048>050-GAZ119-141-221800- ...LAKE AND SUPPLEMENTAL COASTAL OBSERVATIONS... STATION/POSITION TIME TEMP WIND PRES WAVE SWELL AIR SEA DIR/SP/G HT/PER HT/PER/DIR (UTC) (F) (DEG/KT/KT) (MB) (FT/S) (FT/S/D) WINYAH BAY 1545 87 190/ 6 1017.0 LAKE MURRAY NOT AVBL ACE BASIN NERRS NOT AVBL FORT PULASKI 1642 86 86 210/ 2/ 5 1017.9F SAPELO ISLAND 1600 88 CALM 1018.0 $$ ANZ835-935-AMZ111-154-330-350-352-354-370-450-454-472-221800- ...C-MAN AND BUOY OBSERVATIONS... STATION/POSITION TIME TEMP WIND PRES WAVE SWELL AIR SEA DIR/SP/G HT/PER HT/PER/DIR (UTC) (F) (DEG/KT/KT) (MB) (FT/S) (FT/S/D) BUOY 41004 1650 83 84 230/ 8/ 10 1017.3F 4/ 8 3/130/ 8 BUOY 41008 1650 82 83 200/ 4/ 6 1017.9F 2/10 2/110/10 FOLLY BEACH CMAN 1600 85 200/ 10/ 12 1018.3F CAPERS NEARSHORE 1608 82 84 230/ 10/ 16 1017.6F FRIPP NEARSHORE 1608 83 86 210/ 8/ 10 1017.8F STATION/POSITION TIME TEMP WIND PRES WAVE SWELL AIR SEA DIR/SP/G HT/PER HT/PER/DIR (UTC) (F) (DEG/KT/KT) (MB) (FT/S) (FT/S/D) 5E ST. MARYS GA 1630 84 N/A 2/ 9 FRYING PAN BUOY 1650 83 84 240/ 12/ 14 1017.4F 3/ 9 2/140/ 9 BUOY 41025 1650 83 83 230/ 19/ 23 1015.5F 4/ 9 2/130/ 9 CAPE LOOKOUT NC 1600 85 230/ 13/ 17 1016.3F BUOY 41002 1550 83 84 220/ 12/ 12 1019.6 4/ 9 3/120/ 9 BUOY 41010 1650 84 85 220/ 10/ 12 1019.5S 3/ 9 2/110/ 9 ST AUGUSTINE FL 1700 82 80 120/ 10/ 11 1018.4F $$

USA.gov is the U.S. government's official web portal to all federal, state and local government web resources and services.